Theta_e
313 312 312 317 318 318 316 316 315 317 318 318 320 321 323 322 331 328 331 330 327 321 322 323 325 327 330 332 333 334 334 335 336 337 339 340 340 337 330 330 331 330 335 334 333 332 329 328 330
314 314 311 317 317 315 315 315 317 318 318 317 322 324 327 327 328 329 329 323 325 323 321 321 321 326 330 332 331 332 334 335 336 338 339 340 340 336 330 330 331 330 333 332 329 330 328 332 333
314 312 315 321 317 314 314 314 319 317 316 315 321 324 323 328 330 328 327 328 323 322 322 321 321 325 330 331 331 330 331 334 336 338 339 340 339 335 331 331 331 330 329 331 330 330 331 333 333
315 311 313 317 317 316 314 316 316 316 315 316 318 321 324 328 329 327 329 325 323 322 322 321 323 324 330 332 331 330 330 331 332 336 338 339 339 334 332 332 331 330 329 329 329 331 330 333 332
313 313 314 316 316 315 314 314 314 316 315 316 317 319 326 326 327 327 326 323 323 323 323 323 325 328 332 333 332 330 330 330 329 331 336 339 336 334 334 333 332 331 328 327 330 329 332 330 329
312 312 313 313 314 315 316 313 315 315 315 316 317 317 320 320 326 327 324 323 324 324 324 324 325 330 333 334 333 331 330 330 328 329 335 337 336 336 334 333 333 330 325 329 328 328 331 329 329
312 314 313 312 313 314 314 313 314 315 315 318 320 320 323 321 327 326 325 324 325 324 324 325 326 329 334 335 335 333 331 330 331 331 333 334 334 335 333 333 331 326 327 327 328 329 328 328 328
311 313 312 312 313 313 314 314 314 315 317 317 321 325 326 328 330 327 325 325 325 326 326 327 326 328 333 335 336 335 333 332 331 331 332 332 332 332 332 328 323 324 325 326 329 329 327 327 328
312 313 313 312 312 313 314 314 314 314 315 315 316 317 323 325 332 330 326 326 326 328 328 325 324 325 331 336 333 332 334 333 332 332 331 330 327 327 327 324 325 328 329 329 330 328 326 326 327
314 313 313 311 312 313 313 313 314 314 315 315 315 316 317 319 330 332 327 326 327 328 328 325 324 326 332 335 335 333 332 333 333 333 331 329 327 325 326 326 326 326 326 328 329 326 325 326 326
314 314 312 312 312 311 313 314 314 314 315 315 316 316 316 317 324 330 328 328 328 329 327 325 322 325 329 332 333 332 331 331 334 334 333 329 327 324 324 326 326 327 328 328 327 327 326 325 324
313 313 313 313 313 314 314 314 315 315 315 315 316 316 317 317 316 320 328 329 331 330 327 324 322 324 328 330 331 332 331 330 328 329 332 328 325 325 326 325 326 326 328 327 326 326 325 324 322
311 311 312 312 313 313 314 314 315 315 315 315 316 317 317 317 316 317 321 329 331 331 328 325 322 322 328 328 330 331 331 329 330 330 330 326 326 325 323 326 325 327 326 327 326 325 324 323 322
310 311 311 311 312 313 314 315 314 315 315 315 317 317 317 316 316 319 322 327 331 331 328 326 323 323 327 328 329 330 331 328 329 332 330 329 327 325 325 327 324 326 324 325 325 324 324 323 322
310 312 313 313 313 313 315 316 316 316 316 316 316 317 317 316 316 317 322 323 331 331 328 327 324 325 324 328 328 328 327 328 329 330 328 328 325 326 326 326 325 325 322 325 325 325 325 322 322
311 312 313 314 313 314 314 313 315 314 314 315 315 316 316 317 316 317 323 325 330 332 328 327 326 325 324 325 325 326 327 327 330 327 327 329 328 327 327 326 325 326 322 326 325 325 323 321 322
310 313 314 314 314 314 314 316 316 313 313 314 314 315 316 317 318 317 321 326 329 330 328 327 327 324 325 325 326 325 326 327 328 329 328 329 328 328 327 326 325 325 321 326 325 323 322 321 321
311 312 314 314 315 314 315 314 314 314 314 315 315 315 316 317 318 318 318 327 330 329 328 327 327 325 326 326 326 326 327 327 326 326 327 327 327 326 327 326 325 323 324 325 325 322 321 321 321
309 310 310 310 311 312 313 315 315 315 314 315 315 315 315 317 319 318 318 324 330 329 328 328 327 326 325 326 326 326 325 326 325 324 327 326 327 326 326 326 325 324 324 323 324 322 321 320 320
309 310 311 310 310 311 311 312 315 315 315 315 316 316 315 316 318 319 318 321 328 328 328 328 327 327 326 322 325 328 326 324 324 325 327 324 326 327 327 327 326 324 325 322 324 322 320 320 320
314 314 314 313 313 313 312 313 313 314 315 315 314 315 316 316 318 317 317 318 326 327 328 328 327 327 324 323 325 325 328 325 325 325 326 325 326 326 326 326 324 322 324 319 322 322 320 319 320
315 313 313 314 314 315 312 316 315 315 316 316 316 316 316 318 319 317 316 318 322 327 328 328 327 327 324 324 326 324 326 324 324 326 326 326 324 325 326 325 325 324 324 317 317 321 321 319 319
315 314 315 316 317 317 316 317 316 315 316 316 317 316 317 318 318 317 316 318 324 327 328 328 328 327 325 323 325 325 325 324 324 327 325 327 325 324 323 322 321 324 322 315 312 313 317 318 318
314 315 316 316 317 319 317 317 317 316 316 317 318 318 318 317 317 317 316 318 322 326 328 328 328 327 325 322 323 323 322 324 324 326 324 326 326 325 325 323 322 321 322 314 311 312 315 317 317
313 315 318 318 319 318 316 317 317 316 316 319 320 319 319 318 316 318 320 320 323 324 326 328 328 327 325 322 323 323 322 323 323 323 323 325 324 323 324 325 323 321 322 319 312 311 310 313 315
315 314 318 320 320 320 317 318 318 320 319 318 318 318 319 320 315 316 320 322 323 324 326 328 328 327 325 320 321 322 322 322 322 322 322 321 321 321 323 324 324 324 321 321 322 313 309 308 308
316 317 316 321 318 320 319 318 321 320 319 319 319 320 322 323 321 315 320 323 324 324 326 327 328 327 325 320 320 320 321 321 321 320 319 320 320 320 320 323 324 324 323 322 322 316 310 309 311
316 316 321 320 319 321 319 321 324 321 320 319 319 318 321 323 322 316 322 323 324 324 328 327 327 326 324 320 318 320 320 321 320 320 318 319 319 320 319 320 321 323 324 323 322 321 315 312 315
316 316 317 317 319 321 324 326 320 320 319 319 317 315 314 316 323 323 324 324 324 324 324 327 326 326 324 322 319 318 318 320 320 320 319 319 319 319 320 321 321 322 322 324 323 321 321 317 313
315 316 317 318 320 321 322 322 320 318 316 315 313 312 312 312 316 322 322 323 322 322 322 326 324 325 324 324 322 320 319 319 319 319 320 320 319 320 320 321 319 321 322 323 323 320 320 321 320
Wind_Speed
13 11 10 6 3 0 4 5 3 4 3 4 4 5 7 1 5 2 9 20 19 15 12 11 11 13 17 19 20 21 23 23 25 27 27 27 26 24 25 25 24 23 23 23 23 21 19 16 19
13 14 12 4 4 6 6 3 10 8 3 10 6 5 4 4 6 5 20 20 17 11 9 7 8 12 18 20 21 22 22 23 25 27 28 28 28 27 28 27 26 25 24 22 21 19 17 19 22
15 16 7 3 4 10 7 7 5 2 11 4 1 3 3 3 8 16 16 19 14 11 9 9 9 13 18 21 21 22 23 24 26 28 29 29 29 30 30 28 28 27 25 23 21 20 20 22 23
15 7 2 4 10 7 10 1 5 2 3 3 5 8 6 6 7 21 15 17 15 13 12 11 11 13 18 22 23 24 24 24 25 28 30 32 32 31 31 31 28 26 23 21 22 21 22 24 23
16 4 3 4 8 5 6 9 5 9 6 9 7 6 6 9 10 15 16 18 16 14 13 12 13 14 17 21 23 24 24 25 25 27 31 33 34 34 31 29 27 24 22 23 24 24 24 23 21
6 2 3 11 6 7 10 8 8 11 7 10 4 9 8 16 13 16 18 17 16 13 12 11 11 13 16 19 23 23 24 25 26 27 31 35 34 33 29 27 23 22 24 25 25 25 25 22 22
6 3 9 6 5 7 10 5 6 12 12 4 6 4 6 14 16 18 18 18 16 14 13 12 12 13 15 17 19 21 22 22 23 24 24 27 23 22 23 24 21 21 24 25 26 26 25 22 23
5 3 5 6 8 11 5 4 4 9 6 5 4 4 5 8 19 20 21 19 18 17 14 13 13 15 17 16 16 20 21 22 24 24 25 21 27 20 18 19 20 23 25 26 27 26 25 24 22
9 5 10 9 9 7 4 4 6 5 6 5 8 17 10 14 18 23 23 23 23 21 17 13 13 13 17 18 18 18 20 23 24 25 27 27 25 30 26 22 21 22 22 27 28 27 25 24 22
6 6 10 7 9 7 7 6 8 5 7 15 14 13 13 12 14 25 28 28 27 23 17 13 13 11 16 20 18 17 19 22 25 25 23 29 26 21 24 31 27 27 25 29 28 28 27 26 24
6 12 5 5 10 7 6 15 11 13 12 22 17 19 21 16 14 21 30 30 27 20 17 14 13 11 16 19 19 19 18 18 22 24 29 29 30 21 19 26 26 28 28 28 28 29 29 28 25
6 9 12 8 16 12 11 14 17 18 18 28 27 27 29 25 21 22 29 33 28 23 18 16 14 13 17 18 20 20 20 21 19 22 28 37 29 22 26 28 31 30 31 31 32 32 30 26 21
8 8 11 15 14 19 21 21 25 24 21 31 30 27 28 26 26 24 29 34 30 26 21 16 14 14 17 19 20 22 22 21 23 23 30 28 30 29 31 31 35 34 31 34 36 33 29 25 21
5 7 8 11 19 18 20 21 12 20 28 28 27 26 25 26 26 20 29 35 35 29 24 18 15 16 16 18 20 21 24 22 24 26 27 29 36 37 33 32 38 34 31 33 35 33 29 25 23
7 8 10 11 12 10 11 10 13 27 27 22 26 26 26 27 25 22 23 31 36 32 24 19 17 16 14 15 16 18 20 23 23 23 22 27 34 42 36 37 35 35 31 32 35 33 28 25 25
4 4 5 2 3 9 11 18 13 17 19 22 24 26 26 22 24 23 24 28 35 30 25 19 18 16 14 14 14 15 18 20 21 19 21 28 33 42 38 38 37 36 32 33 35 32 28 27 26
2 6 6 9 7 8 9 11 10 6 7 17 16 16 20 22 21 21 25 29 33 29 25 21 19 17 14 14 15 15 17 17 21 25 26 42 44 37 34 39 40 37 32 37 38 33 30 30 28
4 5 5 5 4 6 12 15 16 14 13 15 17 18 23 24 24 18 25 31 33 28 25 22 20 18 16 16 17 16 17 16 17 18 17 24 35 42 39 39 38 36 37 40 38 34 30 29 28
12 13 17 15 12 17 22 21 18 18 16 14 18 20 23 27 25 25 25 31 33 29 28 26 23 20 18 19 20 19 18 16 17 18 17 14 28 40 40 38 32 33 36 39 41 35 32 31 28
11 14 17 12 13 13 19 23 18 16 18 20 22 24 24 26 24 26 29 28 35 33 31 29 25 21 20 19 21 21 19 15 18 15 12 17 21 33 38 37 36 36 37 40 42 38 36 33 31
9 11 13 12 15 18 20 24 23 20 20 19 23 23 24 24 23 26 30 31 34 36 34 33 26 22 19 19 20 18 16 16 17 14 15 10 15 32 32 32 34 35 38 40 44 42 42 37 34
3 5 10 12 9 5 1 8 11 12 15 14 20 18 24 24 25 27 31 34 35 37 36 33 27 22 19 21 22 19 19 19 18 18 18 16 16 19 32 24 25 30 33 36 40 41 41 40 36
4 4 7 10 11 11 11 8 3 7 7 10 11 19 21 21 20 24 31 32 31 35 36 35 28 23 19 20 22 19 17 17 17 16 18 18 22 22 26 29 32 29 31 34 38 40 43 41 42
2 5 11 8 6 6 14 13 3 5 3 5 5 10 11 12 16 20 23 26 28 32 36 34 29 24 19 18 21 19 17 18 15 17 18 19 19 22 26 30 35 35 33 33 33 35 39 42 42
5 4 3 2 4 5 3 9 14 13 8 6 10 15 16 12 11 16 22 28 31 32 36 35 31 26 20 18 21 20 17 16 16 15 14 17 18 22 27 26 33 38 37 34 35 37 36 41 43
7 6 3 3 3 3 0 6 2 8 9 10 11 13 14 14 11 21 23 24 27 30 34 37 34 27 20 17 17 20 19 19 18 17 18 20 21 20 21 28 24 25 38 36 35 36 36 37 40
4 5 1 3 5 5 5 6 9 12 13 14 17 18 19 14 10 17 19 19 21 25 29 34 33 25 18 14 15 16 18 18 18 16 14 14 15 17 20 24 27 28 29 33 34 41 39 38 39
1 5 2 3 3 5 6 6 4 12 14 14 16 18 19 13 8 9 13 15 18 22 26 31 29 22 16 14 13 13 12 13 14 10 10 10 10 13 16 21 22 25 33 28 33 34 41 42 40
4 2 2 2 4 3 4 1 4 8 9 10 11 16 18 20 10 7 11 14 17 19 24 27 25 22 16 12 11 10 10 11 11 11 11 9 8 12 14 17 19 22 28 32 28 30 32 43 48
4 2 4 3 2 4 3 3 2 11 12 11 13 15 16 18 19 14 16 17 18 19 22 22 21 18 15 12 10 10 9 9 9 10 10 11 11 11 13 16 15 17 22 28 27 26 27 30 40
Wind_Direction
208 201 180 163 208 265 250 239 285 230 231 208 224 191 207 195 170 213 160 160 166 169 177 193 207 210 211 208 203 199 201 204 201 197 197 194 193 192 185 183 178 176 171 168 164 165 169 171 164
193 176 164 153 205 218 239 237 234 221 252 296 235 223 214 228 205 164 149 157 163 172 173 179 198 215 213 211 205 200 199 199 199 196 197 196 193 194 189 184 182 180 176 176 175 177 177 166 160
181 170 160 193 203 222 239 211 218 198 303 288 352 232 234 223 199 174 165 168 171 172 177 184 193 211 213 213 212 207 200 201 201 201 200 199 197 195 191 188 184 181 182 180 181 182 181 172 164
171 167 86 225 215 232 231 221 212 288 307 337 13 296 265 225 187 174 174 177 177 178 186 194 202 213 216 214 213 211 207 203 203 203 203 203 201 195 194 190 188 184 186 182 185 180 180 173 167
171 159 195 227 231 266 240 252 279 295 291 287 312 275 245 267 217 192 188 184 186 186 189 196 207 217 223 217 214 214 211 208 207 208 205 204 199 196 193 190 188 187 185 186 181 183 179 172 171
158 144 213 232 228 241 263 236 266 274 288 303 295 259 251 245 225 195 190 192 190 197 196 201 213 217 225 225 219 219 215 214 211 210 207 206 203 199 191 191 189 188 187 187 189 183 181 175 177
185 178 238 244 230 237 250 210 222 256 261 264 303 247 262 221 211 196 194 197 200 203 207 212 224 227 223 230 226 221 220 218 216 213 214 197 200 195 193 191 188 191 191 192 194 187 180 175 181
206 197 209 221 228 245 247 208 233 205 242 285 312 273 302 288 198 198 193 205 204 210 214 215 225 225 227 224 221 221 218 217 214 212 209 206 193 193 195 194 191 200 201 198 194 187 177 177 179
185 233 239 220 204 231 246 236 236 217 271 261 290 309 297 313 213 195 199 209 210 215 217 225 225 228 221 216 220 222 220 220 219 212 209 213 213 208 195 193 191 200 198 195 192 185 176 173 176
198 226 238 207 220 235 232 232 263 268 288 289 293 291 317 329 232 208 207 215 215 218 218 229 229 226 209 214 218 216 221 219 222 220 209 206 209 219 213 214 203 202 196 197 190 181 175 173 175
195 238 216 210 235 231 241 265 267 267 275 274 284 294 302 295 256 235 222 223 223 219 220 230 234 221 211 211 213 214 215 222 222 222 216 207 200 212 217 207 200 193 190 194 185 178 175 180 178
222 221 227 238 244 246 241 261 266 265 263 275 283 289 293 287 272 253 236 232 226 220 221 230 228 221 215 213 216 219 222 220 222 231 219 201 210 201 184 195 195 193 190 193 184 180 181 181 179
234 254 247 246 250 245 252 249 259 269 264 275 282 287 285 283 281 270 246 235 229 226 223 228 230 231 220 215 218 219 215 226 230 224 205 215 212 205 201 204 195 196 193 194 189 185 184 183 180
206 222 262 254 254 256 250 251 238 264 268 271 278 279 282 281 280 268 239 232 228 225 224 226 233 233 225 218 219 219 213 225 233 225 220 226 219 214 208 197 193 194 193 200 197 189 189 186 182
260 273 282 249 235 240 243 249 233 249 264 261 265 270 274 276 280 267 239 231 227 224 223 222 231 228 223 214 208 211 216 223 227 226 223 220 216 209 201 199 204 196 190 202 197 192 192 187 182
279 261 271 283 244 247 206 259 266 254 245 248 255 261 270 273 274 271 249 237 229 224 223 224 228 226 217 209 206 211 225 223 220 224 225 220 215 204 201 207 201 195 194 200 199 193 192 190 187
236 262 258 295 258 272 209 280 270 242 243 256 261 269 278 282 274 256 247 238 228 226 222 227 225 229 215 209 204 209 223 223 223 228 232 216 205 203 209 206 200 196 195 198 197 193 197 191 188
234 244 254 257 321 325 287 273 272 284 288 283 287 286 284 287 270 259 250 239 227 223 220 224 225 226 213 212 210 214 225 220 213 217 219 217 215 201 200 196 198 199 196 196 197 198 196 195 190
271 275 273 272 279 286 279 280 282 287 278 272 281 282 280 281 276 260 255 241 227 221 218 219 222 220 211 210 209 208 222 207 212 214 225 226 226 212 207 215 209 200 198 199 200 197 195 192 192
258 271 277 280 262 265 272 274 276 268 273 268 273 277 277 275 266 260 256 245 226 220 216 218 221 222 214 213 204 205 217 215 209 214 230 223 222 206 211 212 205 198 200 201 201 199 195 196 195
254 254 272 274 290 277 279 277 264 255 256 266 264 260 265 260 266 265 250 239 222 217 216 217 218 221 215 205 204 210 209 206 199 194 209 222 219 209 195 209 189 195 204 203 202 203 202 196 197
284 239 261 277 285 273 341 288 296 280 269 261 259 255 258 254 260 259 249 231 221 216 214 213 215 218 212 203 206 210 204 198 197 195 198 203 180 194 198 201 198 202 204 207 206 209 209 211 201
246 305 277 292 270 277 266 273 319 249 260 247 242 243 247 256 262 257 238 226 217 212 211 208 211 216 213 201 207 206 209 209 211 202 202 203 194 188 186 194 199 206 205 210 211 210 211 213 212
260 297 284 253 275 264 250 225 285 246 246 328 331 317 305 299 277 251 231 223 214 207 209 205 208 213 211 201 202 207 213 210 209 200 200 208 211 214 210 203 206 204 205 208 212 215 216 217 221
224 269 286 216 215 259 289 214 253 297 323 350 332 323 319 317 270 234 216 207 204 204 207 202 205 210 209 203 198 207 215 218 219 217 226 219 226 228 228 222 212 210 213 207 211 215 217 221 224
194 196 232 278 245 312 328 238 185 358 10 17 359 332 321 320 261 241 221 206 203 201 204 196 201 205 206 201 197 201 213 220 222 227 232 238 245 239 230 222 230 219 212 211 217 216 218 219 229
150 206 242 280 253 275 231 236 225 7 21 13 4 3 350 332 282 234 217 204 196 195 196 196 197 197 202 197 195 200 207 213 219 229 218 227 225 231 222 215 224 227 206 213 220 217 215 216 219
145 122 202 172 262 246 253 251 328 9 2 11 9 5 3 2 358 208 196 184 177 194 189 197 194 190 191 194 192 198 205 210 208 202 201 211 221 221 214 216 220 224 219 224 226 220 219 219 223
160 185 213 289 253 280 314 150 39 47 32 33 19 12 13 21 34 98 137 153 172 187 186 189 184 183 178 181 190 189 193 197 205 207 209 211 216 214 223 217 225 223 224 229 236 232 238 224 227
184 179 167 233 274 255 308 282 108 43 47 54 43 25 28 45 59 91 126 142 157 170 177 175 178 172 164 166 174 183 194 205 213 217 214 214 217 218 217 221 226 227 224 227 237 237 235 244 230